Flag for Slovenia Weather past 2 weeks in Ljubljana, Slovenia

Now
66 °F

Rain. Overcast.


Feels Like: 66 °F
Forecast: 61 / 79 °F
Wind: 1 mph from Northeast

Location: Ljubljana / Bezigrad

Current Time: Jul 23, 2014 at 12:00:42 AM

Latest Report: Jul 22, 2014 at 6:00 PM


Visibility: 5 mi

Pressure: 29.81 "Hg

Humidity: 96%

Dew point: 64 °F

Location of LjubljanaLocation

Historic Weather in Ljubljana — Graph

°F

Ljubljana temperature yesterday

Maximum temperature yesterday: 68 °F (at 12:00 PM)
Minimum temperature yesterday: 59 °F (at 7:00 AM)
Average temperature yesterday: 63 °F

Past Weeks' High & Low Weather Summary

 TemperatureHumidityPressure
High89 °F (Jul 19, 4:00 PM)98% (Jul 15, 3:00 AM)30.12 "Hg (Jul 15, 3:00 AM)
Low55 °F (Jul 11, 5:00 AM)37% (Jul 18, 5:00 PM)29.67 "Hg (Jul 8, 4:00 PM)
Average69 °F76%29.91 "Hg
* Reported Jul 7 8:00 PM — Jul 22 6:00 PM, Ljubljana, Weather by CustomWeather, © 2014

Note: Actual official high and low records may vary slightly from our data, if they occured in-between our weather recording intervals... More about our weather records

Advertising

Ljubljana weather history for previous 24 hours

 ConditionsComfort  
Time TempWeatherWind HumidityBarometerVisibility
6:00 PM
Jul 22
66 °FRain. Overcast.1 mph96%29.81 "Hg5 mi
5:00 PM67 °FLight rain. Overcast.No wind91%29.80 "Hg9 mi
4:00 PM66 °FLight rain. Overcast.1 mph92%29.80 "Hg7 mi
3:00 PM66 °FLight rain. Overcast.1 mph90%29.81 "Hg9 mi
2:00 PM66 °FLight rain. Overcast.1 mph86%29.81 "Hg9 mi
1:00 PM68 °FSprinkles. Overcast.2 mph74%29.81 "Hg9 mi
12:00 PM68 °FOvercast.1 mph74%29.80 "Hg9 mi
11:00 AM65 °FOvercast.1 mph78%29.81 "Hg9 mi
10:00 AM62 °FOvercast.1 mph84%29.81 "Hg7 mi
9:00 AM60 °FFog.1 mph89%29.81 "Hg2 mi
8:00 AM59 °FFog.1 mph94%29.80 "Hg2 mi
7:00 AM59 °FFog.2 mph97%29.80 "Hg2 mi
6:00 AM59 °FFog.2 mph95%29.80 "Hg2 mi
5:00 AM59 °FCool.1 mph97%29.78 "HgN/A
3:00 AM62 °FCool.1 mph95%29.79 "HgN/A
2:00 AM62 °FCool.1 mph94%29.81 "HgN/A
1:00 AM62 °FCool.No wind96%29.80 "HgN/A
12:00 AM62 °FCool.1 mph95%29.81 "HgN/A
Weather by CustomWeather, © 2014

See weather overviewHow to use our weather pages